Wind_Speed
13 12 12 11 11 12 13 14 13 12 11 9 9 8 7 6 3 1 1 3 3 4 4 6 5 7 6 7 7 10 6 11 9 8 13 16 10 4 3 3 4 4 3 4 7
10 10 10 10 10 11 12 12 10 9 9 8 7 6 6 5 6 5 3 2 4 6 8 8 8 10 7 4 5 7 6 9 8 5 5 7 8 2 2 2 1 6 5 6 7
9 8 8 8 8 9 9 9 9 9 10 10 9 7 7 6 4 5 4 3 2 7 9 10 12 14 13 3 2 7 3 5 8 8 10 3 10 4 5 1 1 4 6 4 7
5 7 7 6 5 6 7 7 7 8 8 9 9 8 8 8 7 5 4 4 3 6 10 13 14 15 15 8 6 8 4 5 8 8 5 5 7 4 3 4 5 4 5 4 5
5 7 6 4 5 4 5 4 4 4 5 6 7 7 7 7 8 8 6 5 5 7 10 13 15 14 12 11 9 13 4 6 6 3 3 5 6 6 3 10 8 6 4 6 6
7 5 4 4 4 3 3 1 1 3 5 6 7 8 7 6 6 7 8 7 6 8 11 13 13 15 13 8 7 2 1 3 3 2 2 4 9 4 5 9 4 7 3 5 6
7 5 5 4 4 4 4 5 6 7 9 10 10 11 11 8 7 7 7 7 7 6 12 11 11 15 11 7 3 4 3 1 5 4 2 4 8 2 5 11 7 1 2 5 9
8 8 8 8 8 9 10 10 11 12 12 13 13 12 12 12 10 9 8 7 7 8 9 10 10 15 9 4 4 1 4 2 2 2 6 3 8 10 10 10 14 9 5 9 11
8 8 8 9 9 9 9 9 9 9 10 10 10 11 12 15 15 13 12 8 8 9 8 8 12 13 6 4 5 3 2 1 7 3 6 6 9 7 14 14 14 18 10 10 14
8 9 8 9 9 10 10 12 13 14 14 14 15 15 14 15 16 16 14 12 11 10 10 10 12 12 5 4 6 6 9 7 3 8 9 8 4 4 9 14 16 15 8 10 14
12 12 12 13 15 15 16 16 16 16 17 16 16 17 16 17 17 16 16 15 13 12 11 9 10 10 10 7 8 9 8 11 4 4 3 8 1 7 2 6 19 22 12 8 8
17 18 18 18 20 21 21 21 19 17 17 15 16 14 14 15 16 16 15 16 15 12 11 9 13 14 13 9 9 7 10 10 5 4 5 5 5 3 3 6 12 19 17 15 9
22 23 23 23 26 27 27 25 20 18 13 17 12 13 10 14 16 15 15 16 15 12 13 13 15 13 13 13 14 13 14 11 4 2 4 7 5 3 3 2 6 4 14 15 9
27 28 29 28 29 27 22 21 16 14 14 17 18 17 17 17 16 16 13 17 15 13 14 14 15 13 15 13 16 20 16 11 6 7 5 3 3 5 2 3 5 7 6 10 12
18 20 20 20 19 18 18 17 14 15 14 13 14 16 18 18 18 17 15 16 17 17 13 13 14 17 14 13 14 9 15 11 8 14 14 5 4 5 3 6 10 6 6 6 10
16 18 17 18 16 16 17 16 14 15 16 14 14 16 16 16 16 19 17 18 18 18 14 14 10 9 11 11 9 10 11 16 17 16 14 10 7 7 5 9 5 12 7 11 12
10 13 14 18 17 15 18 19 17 18 19 20 22 19 20 17 15 16 15 17 17 16 10 8 5 11 16 15 8 4 4 18 24 23 16 10 9 6 9 9 11 11 11 13 14
16 15 13 11 13 16 16 15 15 19 18 19 21 20 19 20 19 10 12 10 14 13 9 3 7 11 10 6 6 6 8 16 26 23 15 16 10 7 7 8 6 8 14 18 16
20 19 18 17 15 15 15 14 17 19 19 20 20 19 20 20 23 16 12 13 10 9 4 1 7 14 13 10 11 7 9 11 20 22 21 19 10 4 10 2 8 4 8 16 15
20 18 18 18 18 18 19 19 19 22 23 23 24 21 22 22 23 20 19 17 17 14 8 5 8 12 11 8 9 5 16 14 16 19 24 19 13 7 5 5 11 13 10 10 16
18 16 16 15 15 16 17 19 21 23 24 25 25 25 23 23 23 24 19 18 16 18 19 17 15 14 16 14 7 3 11 13 15 19 19 21 15 11 4 5 10 13 4 6 8
17 18 17 16 14 14 15 16 18 22 24 25 25 27 29 29 27 24 25 21 22 23 19 18 17 21 16 14 14 13 9 9 14 18 20 18 16 11 4 3 17 7 2 4 6
19 17 19 20 18 17 17 19 19 22 24 26 27 29 30 33 37 34 30 28 29 28 31 26 27 23 20 23 24 20 16 15 12 18 23 25 21 18 9 6 0 8 10 10 12
21 20 20 22 22 22 23 26 26 27 29 31 28 31 31 32 37 42 41 36 36 36 34 33 33 32 24 16 21 26 27 21 20 21 26 26 24 21 13 11 9 3 7 10 10
23 25 24 25 25 25 27 30 31 30 31 34 35 35 35 33 36 41 40 41 42 42 42 42 39 34 32 27 29 28 30 31 27 26 26 29 27 25 19 15 14 2 5 2 1
26 26 29 31 32 31 33 32 35 36 36 38 37 39 40 40 37 39 41 43 43 48 47 48 47 44 39 38 32 32 30 31 32 29 24 33 31 27 23 17 16 8 1 4 3
30 31 33 36 38 40 39 39 41 42 41 43 45 44 43 45 44 40 41 42 46 49 49 54 49 48 46 41 36 39 34 33 33 29 26 31 31 29 26 23 16 17 12 11 11
Wind_Direction
107 104 101 96 92 94 97 98 96 91 84 77 70 70 69 65 59 340 236 222 220 229 242 262 246 244 228 251 346 348 6 358 100 97 229 247 199 360 360 57 144 128 176 103 75
110 109 107 101 99 101 102 99 92 84 77 72 65 58 49 47 51 39 7 276 232 233 237 253 260 257 248 180 265 303 340 69 73 17 333 175 190 301 55 136 83 148 202 119 104
114 119 113 108 109 107 106 98 89 80 75 69 66 57 49 38 30 18 8 360 260 242 246 248 258 269 284 266 323 305 13 73 43 22 360 222 206 49 166 18 162 172 178 135 128
129 132 123 114 123 110 113 101 87 80 70 64 57 52 43 30 32 6 349 335 303 257 252 257 261 271 287 309 299 277 333 30 30 18 342 25 224 294 231 243 201 169 156 169 155
155 146 145 129 148 131 127 106 82 58 47 37 27 19 24 19 21 15 358 326 308 280 269 265 273 281 292 300 325 322 354 66 29 35 13 331 297 312 231 187 203 177 158 157 162
166 169 172 167 170 161 176 199 326 338 336 339 337 333 338 348 347 357 4 345 316 288 280 280 292 294 293 311 327 275 269 14 68 157 246 321 330 319 187 143 152 135 150 145 161
192 198 192 191 200 219 243 267 284 293 299 303 304 305 307 315 316 323 335 342 344 308 294 301 288 284 303 328 315 258 217 39 327 330 52 349 338 190 258 235 218 359 180 152 177
209 220 230 238 242 250 261 268 274 279 283 287 288 288 285 286 293 294 305 315 322 322 306 308 291 278 296 299 256 196 171 255 338 276 300 285 315 237 223 220 223 235 199 160 172
224 232 241 251 258 261 269 274 277 281 280 277 277 278 278 279 282 284 279 284 292 300 309 297 281 289 302 257 261 174 105 231 255 207 256 303 335 232 235 263 247 257 219 177 160
235 242 252 259 266 271 275 282 285 287 285 282 279 275 274 273 271 274 273 275 275 284 296 294 280 281 270 242 229 226 214 235 320 277 256 264 315 332 310 278 241 202 246 198 169
253 255 260 266 271 274 277 283 293 297 288 279 272 269 263 267 269 268 272 268 269 274 288 310 279 273 261 233 234 229 234 238 148 78 201 238 269 300 300 284 236 216 227 213 194
258 263 267 271 273 277 281 287 294 284 273 267 268 264 260 262 263 261 259 263 264 269 280 282 253 259 257 226 218 239 255 241 178 254 275 187 70 154 212 295 320 246 223 216 204
263 266 270 274 277 281 286 288 284 280 276 280 266 266 258 253 255 256 259 258 258 265 268 276 277 278 261 239 223 234 243 237 203 314 347 358 50 83 103 72 2 324 226 202 173
266 269 272 274 278 279 281 277 276 268 262 260 267 263 255 255 255 252 254 261 256 261 272 278 277 253 250 247 241 230 225 239 228 262 239 73 208 220 100 18 108 64 21 215 197
268 269 271 271 272 275 269 271 277 269 272 264 260 254 253 251 253 259 260 259 264 269 267 281 286 267 263 255 260 222 243 241 239 257 244 244 165 239 218 162 179 157 124 97 203
270 271 271 274 274 268 265 268 264 257 261 262 253 246 252 253 246 245 244 260 266 262 258 259 258 262 242 237 221 215 234 258 245 244 255 255 227 218 248 221 207 198 186 173 150
290 288 275 267 268 264 270 273 267 260 251 250 250 246 242 243 243 245 235 244 255 258 246 255 259 219 203 198 195 169 283 250 255 256 264 278 253 255 222 218 230 177 191 212 183
288 285 286 282 271 268 269 268 261 256 255 251 257 259 254 244 233 214 224 235 249 246 237 218 175 192 187 182 232 207 262 249 236 248 267 258 268 270 247 218 216 220 228 231 230
297 288 279 271 268 268 268 265 256 255 259 263 263 263 252 244 240 212 192 203 208 220 207 150 216 217 223 217 237 251 267 213 226 235 245 256 248 246 210 257 213 256 254 241 220
299 292 288 276 268 265 263 260 258 256 258 261 265 266 267 273 276 272 214 202 188 157 172 165 208 224 233 223 230 210 185 204 223 222 230 237 243 258 176 182 235 239 280 285 242
297 292 292 290 276 268 264 263 262 268 274 275 276 271 264 262 264 271 268 223 221 212 201 192 204 192 236 207 201 208 192 229 239 217 226 232 225 252 267 211 254 213 243 280 232
295 289 285 284 276 264 267 272 272 268 268 269 265 267 264 266 264 259 266 264 250 241 245 243 230 196 221 254 221 229 209 233 248 251 250 243 228 235 137 341 166 190 167 267 243
290 287 281 278 279 277 271 266 259 264 269 265 264 264 265 261 261 261 258 263 261 259 257 251 248 242 223 229 233 240 240 252 240 254 252 251 247 250 227 254 139 233 291 285 273
298 290 282 278 277 278 274 270 267 267 266 269 262 258 260 260 259 256 254 254 260 261 259 261 253 255 252 233 239 239 252 258 252 246 246 251 245 246 251 244 240 201 253 274 249
297 295 292 287 280 277 271 270 271 270 268 266 266 262 257 250 252 256 254 245 248 250 255 259 263 257 262 250 236 241 241 250 252 253 254 242 239 243 240 259 241 249 239 245 202
293 295 292 290 288 286 284 282 278 274 269 270 266 266 266 262 253 249 250 249 239 243 243 251 255 261 259 252 244 240 244 241 250 256 267 244 244 245 243 246 273 260 180 219 288
294 289 288 286 284 283 284 282 279 274 267 264 263 261 259 261 260 256 256 249 243 240 239 243 251 255 259 260 244 241 241 249 252 256 258 254 246 253 248 252 263 271 246 274 291
Height
5883 5883 5883 5883 5883 5883 5883 5883 5883 5883 5883 5883 5882 5882 5882 5881 5881 5880 5880 5881 5880 5879 5878 5877 5878 5879 5882 5882 5883 5882 5881 5879 5876 5878 5880 5879 5878 5879 5880 5879 5881 5880 5879 5881 5881
5885 5885 5885 5885 5886 5886 5886 5885 5885 5885 5885 5884 5884 5883 5882 5882 5882 5881 5881 5880 5880 5879 5878 5877 5877 5876 5879 5882 5883 5883 5882 5878 5878 5878 5878 5876 5878 5879 5880 5880 5882 5880 5880 5882 5883
5887 5887 5887 5887 5887 5887 5887 5887 5887 5887 5886 5885 5885 5884 5883 5883 5883 5882 5881 5880 5880 5879 5878 5877 5876 5875 5876 5882 5882 5882 5881 5878 5877 5876 5876 5874 5875 5879 5879 5879 5882 5881 5880 5882 5882
5888 5888 5888 5888 5888 5888 5889 5888 5888 5888 5888 5887 5886 5885 5884 5884 5885 5882 5882 5880 5879 5878 5878 5877 5876 5875 5876 5880 5881 5882 5881 5881 5880 5878 5878 5876 5880 5879 5879 5880 5881 5881 5880 5882 5883
5888 5888 5889 5889 5889 5889 5889 5889 5889 5889 5889 5888 5887 5886 5886 5885 5884 5883 5882 5880 5879 5878 5877 5876 5874 5875 5876 5878 5881 5881 5882 5881 5880 5880 5881 5881 5880 5879 5879 5879 5880 5881 5882 5883 5883
5887 5888 5888 5889 5889 5889 5890 5890 5890 5889 5889 5889 5888 5887 5886 5886 5884 5883 5882 5881 5879 5877 5876 5875 5874 5874 5875 5879 5880 5881 5881 5880 5881 5880 5879 5878 5877 5875 5877 5878 5879 5881 5883 5884 5882
5887 5887 5888 5888 5889 5889 5889 5889 5889 5889 5888 5888 5887 5885 5885 5885 5883 5882 5881 5880 5879 5877 5874 5874 5874 5872 5876 5877 5877 5879 5881 5879 5879 5878 5878 5877 5874 5873 5874 5875 5877 5879 5883 5883 5881
5885 5886 5886 5887 5887 5887 5887 5888 5887 5887 5887 5886 5885 5884 5883 5881 5881 5881 5880 5879 5878 5877 5875 5873 5873 5871 5875 5876 5877 5878 5879 5878 5877 5875 5875 5875 5874 5870 5872 5875 5877 5879 5883 5881 5881
5883 5884 5884 5884 5884 5885 5885 5885 5885 5884 5884 5883 5883 5882 5882 5879 5878 5878 5879 5878 5877 5876 5875 5874 5872 5872 5874 5874 5875 5875 5878 5876 5876 5873 5873 5874 5873 5870 5872 5871 5873 5877 5881 5881 5881
5881 5882 5882 5882 5882 5882 5882 5882 5882 5882 5882 5881 5880 5881 5879 5878 5876 5875 5876 5876 5876 5875 5874 5872 5870 5870 5872 5873 5873 5874 5876 5874 5872 5873 5872 5873 5872 5872 5872 5870 5871 5873 5877 5879 5879
5879 5879 5880 5879 5879 5879 5879 5879 5881 5881 5878 5877 5876 5875 5875 5874 5873 5873 5872 5873 5873 5873 5872 5870 5868 5868 5869 5870 5871 5872 5872 5871 5871 5872 5871 5872 5873 5872 5872 5871 5870 5872 5875 5877 5879
5876 5875 5875 5875 5875 5874 5874 5874 5876 5875 5873 5872 5871 5871 5871 5871 5870 5870 5870 5871 5871 5870 5870 5869 5865 5866 5866 5869 5869 5870 5870 5869 5870 5871 5871 5871 5872 5873 5871 5871 5871 5867 5873 5877 5877
5871 5871 5870 5871 5869 5869 5869 5869 5870 5869 5869 5867 5868 5867 5868 5867 5866 5866 5867 5867 5867 5867 5867 5866 5863 5864 5865 5866 5867 5867 5867 5867 5868 5869 5870 5870 5870 5869 5868 5867 5868 5868 5869 5871 5875
5866 5865 5865 5865 5865 5863 5864 5863 5864 5863 5864 5865 5864 5863 5863 5863 5863 5863 5863 5864 5864 5865 5864 5864 5862 5861 5862 5864 5865 5866 5864 5865 5866 5868 5868 5869 5869 5866 5865 5867 5868 5867 5866 5867 5873
5860 5859 5859 5858 5859 5858 5859 5858 5859 5860 5860 5860 5858 5857 5857 5859 5859 5859 5860 5860 5860 5861 5862 5860 5859 5859 5859 5862 5862 5865 5863 5863 5863 5864 5865 5866 5866 5865 5865 5865 5865 5866 5865 5868 5870
5855 5854 5854 5853 5854 5854 5853 5854 5855 5856 5855 5854 5853 5853 5853 5853 5854 5854 5856 5856 5857 5857 5858 5857 5857 5857 5858 5858 5860 5861 5861 5860 5861 5861 5862 5863 5864 5865 5864 5865 5864 5864 5864 5865 5870
5852 5851 5850 5850 5850 5850 5849 5849 5850 5848 5850 5850 5848 5849 5850 5850 5851 5851 5852 5851 5852 5854 5855 5854 5854 5855 5857 5857 5856 5857 5858 5857 5857 5857 5859 5861 5861 5864 5863 5862 5861 5862 5863 5864 5866
5849 5848 5847 5846 5845 5845 5845 5845 5844 5843 5844 5846 5846 5847 5848 5847 5847 5848 5847 5847 5848 5849 5851 5851 5853 5855 5856 5856 5855 5854 5855 5854 5853 5855 5858 5858 5859 5861 5861 5860 5860 5859 5860 5860 5865
5845 5844 5843 5843 5842 5842 5842 5841 5839 5838 5840 5840 5841 5843 5844 5842 5843 5844 5844 5844 5845 5846 5849 5848 5850 5852 5852 5852 5852 5851 5850 5851 5850 5853 5854 5856 5858 5860 5860 5860 5860 5858 5857 5857 5859
5840 5839 5838 5838 5837 5837 5838 5836 5835 5833 5834 5835 5835 5837 5837 5838 5838 5839 5840 5842 5840 5840 5842 5845 5847 5849 5849 5849 5849 5847 5848 5848 5848 5848 5850 5853 5855 5858 5858 5857 5858 5856 5856 5856 5856
5835 5835 5834 5833 5832 5832 5832 5832 5830 5830 5830 5831 5831 5830 5831 5832 5832 5832 5836 5840 5839 5837 5835 5837 5839 5845 5847 5848 5847 5847 5846 5847 5848 5847 5848 5850 5853 5854 5855 5853 5854 5856 5857 5856 5855
5831 5830 5829 5827 5828 5827 5828 5828 5827 5825 5825 5825 5827 5826 5824 5823 5825 5826 5828 5832 5832 5834 5835 5836 5836 5837 5841 5844 5843 5843 5843 5843 5844 5847 5846 5846 5850 5852 5853 5850 5851 5854 5856 5856 5856
5827 5826 5823 5821 5822 5822 5822 5821 5821 5818 5818 5817 5819 5820 5820 5819 5817 5819 5822 5825 5825 5827 5827 5830 5829 5832 5834 5837 5837 5838 5840 5840 5839 5842 5842 5843 5846 5848 5851 5851 5852 5853 5852 5852 5853
5821 5821 5820 5817 5817 5816 5816 5814 5813 5813 5811 5811 5812 5811 5812 5813 5812 5811 5813 5818 5819 5820 5821 5822 5824 5826 5830 5833 5834 5834 5835 5836 5837 5837 5838 5839 5841 5844 5848 5850 5850 5851 5852 5850 5849
5815 5813 5812 5811 5810 5809 5807 5805 5805 5805 5804 5801 5801 5801 5802 5804 5804 5801 5804 5811 5813 5814 5814 5814 5815 5820 5822 5826 5826 5828 5829 5831 5831 5832 5833 5834 5837 5840 5844 5845 5848 5848 5848 5847 5846
5809 5807 5803 5801 5799 5799 5797 5797 5795 5795 5795 5793 5792 5791 5791 5792 5793 5794 5795 5798 5803 5805 5807 5805 5807 5810 5815 5815 5819 5822 5823 5824 5826 5827 5829 5829 5831 5835 5839 5841 5845 5845 5844 5843 5841
5801 5798 5796 5793 5789 5787 5785 5784 5782 5781 5781 5779 5778 5779 5779 5778 5780 5784 5786 5787 5790 5794 5797 5799 5798 5801 5804 5810 5811 5812 5817 5819 5820 5822 5824 5823 5827 5829 5833 5836 5840 5841 5841 5839 5839